DELTA 1 DEB, 10717

Orbit data source: Space-Track

DELTA 1 DEB, 10717 is space debris in SSO originally from a launch on Thu, 29 Jul 1976 UTC launched from the Air Force Western Test Range (AFWTR). Debris objects in space refer to the collection of defunct objects orbiting the Earth. Examples of debris include non-operational satellites, rocket bodies, and fragments generated from explosions, collisions, or faulty payload assembly.

Loading next visibility...
Identifier
10717, 1976-077AN
Orbit
SSO
Country
Flag of USUS
Related business
Manufacturer
Unknown
Mission
Spacecraft
Bus & Motor
Unknown
Mass
Unknown
Launch date (UTC)
1976-07-29 (50 years ago)
Launch vehicle
Unknown
Launch site
Air Force Western Test Range (AFWTR)
Object type
Payload
Rocket body
Debris
Shape & HBR
Unknown shape, 0.1 m
Radar Cross Section
Small (<0.1 m²)

Expand to show TLE details & history
Last TLE update: 1 day ago

TLE from 1 day ago
0 DELTA 1 DEB
1 10717U 76077AN  26035.54933568 -.00000032  00000-0  12865-3 0  9993
2 10717 102.6365  20.2079 0099713 173.0419 314.8521 12.23326146211519
Epoch: 2026-02-04T13:11Z
TLE epoch observation values (Epoch: 2026-02-04T13:11:02.602Z)
Latitude
51.21802°
Longitude
-116.14664°
Altitude
1,530.496 km
Speed
7.13 km/s
True Right ascension
14h 25m 18s
True Declination
51° 03' 59"
Sunlit
Object was in daylight at epoch
Visualization orbit readout
Latitude
Unknown
Longitude
Unknown
Altitude
Unknown
Speed
Unknown
Apparent Right ascension
Unknown
Apparent Declination
Unknown
Sunlit
N/A
Visualization observer readout
Local Sidereal Time
23:58:33
Azimuth
Unknown
Elevation
Unknown
Doppler factor
Unknown
Orbital elements
Apogee altitude
1,655.032 km
Perigee altitude
1,496.411 km
Semi-major axis
7,953.859 km
Eccentricity
0.00997
Inclination
102.6365°
RAAN
20.2079°
Arg. of periapsis
173.0419°
True anomaly
314.0349°
Mean anomaly
314.8521°
Eccentric anomaly
314.44422°
Mean motion
3.05968 °/min
Orbital period
117.66 mins
BSTAR
0.00012865
Loading maneuver chart data...
Computing Atmospheric mass density...
Loading historical data...
Loading historical data...
Loading historical data...
Loading historical data...
Loading historical data...
Loading historical data...
Loading historical data...

Documentation

Showing up to 5 results
|